User: anonymous   Login
Location: *
(46.4000°N, 12.6667°E)
Time: 02:28:08
(UTC+00:00)
Language:

BREEZE M DEB (TANK) - Orbit

View from above orbital plane
View from above orbital plane
View from above satellite
View from above satellite

Ground track
Ground track

The orbit data is extracted from the following two-line orbital elements,

1 28359U 04022B   20192.68075013  .00001448  00000-0  22433-3 0  9993
2 28359  49.5254   2.3577 4641000 106.3744 308.2034  6.23660818354947
Epoch (UTC): 10 July 2020 16:20:16
Eccentricity: 0.4641000
inclination: 49.5254°
perigee height: 303 km
apogee height: 11875 km
right ascension of ascending node: 2.3577°
argument of perigee: 106.3744°
revolutions per day: 6.23660818
mean anomaly at epoch: 308.2034°
orbit number at epoch: 35494

The dashed part of the orbit path shows where the satellite is in the earth's shadow,  

DLR